Starlink 31388

operational
NORAD ID: 59565 Int'l Des: 2024-076 Owner: SPXS Country: US Constellation: starlink
LEOCIRCULAR

About Starlink 31388

Description loading...

Live Position

Loading 3D Globe...

Upcoming Passes

Altitude History

Altitude vs Time

uPlot chart will show altitude changes over time

Two-Line Element Set

1 59565U 24076B 25306.47038212 .00013417 00000-0 49618-3 0 9999
2 59565 42.9983 7.7028 0001292 289.0121 71.0590 15.27581430 87045
Epoch: Nov 2, 2025 • Age: 15 hours

Current Status

Altitude 491.4 km
Velocity 7.62 km/s
Sub-Earth Point -31.93°S, 146.94°E
Launch Date Apr 23, 2024
Age 1.5 years
Type internet

Technical Details

Classification Payload
Mass 730.00 kg
Dry Mass 700.00 kg
Total Mass 730.00 kg
Length 0.30 m
Diameter 4.10 m
Span 29.00 m
Shape Box + pan
Manufacturer SPXS
Bus Type Starlink V2M
Phase Status In Orbit
Owner/State SPXS/US

Large Constellations

Loading constellations...